| time (UTC) | temp F | wind direction | speed MPH | gust MPH | rain 1hr in | rain 24hr in | rain mn in | humidity % | barometer mb |
| 20260904191105 | 78 | 181 | 1.0 | 3.0 | 0.00 | 0.00 | 0.00 | 57 | 1013.4 |
| 20260904190105 | 78 | 323 | 2.0 | 5.0 | 0.00 | 0.00 | 0.00 | 58 | 1013.5 |
| 20260904185105 | 77 | 347 | 2.0 | 3.0 | 0.00 | 0.00 | 0.00 | 57 | 1013.6 |
| 20260904184105 | 76 | 76 | 2.0 | 3.0 | 0.00 | 0.00 | 0.00 | 60 | 1013.7 |
| 20260904183605 | 76 | 165 | 1.0 | 5.0 | 0.00 | 0.00 | 0.00 | 60 | 1013.7 |
| 20260904183105 | 75 | 185 | 2.0 | 6.0 | 0.00 | 0.00 | 0.00 | 60 | 1013.7 |
| 20260904182606 | 73 | 190 | 2.0 | 6.0 | 0.00 | 0.00 | 0.00 | 64 | 1013.7 |
| 20260904173105 | 73 | 126 | 2.0 | 5.0 | 0.00 | 0.00 | 0.00 | 65 | 1013.6 |
| 20260904172604 | 72 | 171 | 1.0 | 5.0 | 0.00 | 0.00 | 0.00 | 66 | 1013.6 |
| 20260904171104 | 70 | 171 | 3.0 | 9.0 | 0.00 | 0.00 | 0.00 | 69 | 1013.6 |
| 20260904165104 | 69 | 178 | 3.0 | 8.0 | 0.00 | 0.00 | 0.00 | 70 | 1013.6 |
| 20260904163604 | 69 | 172 | 2.0 | 7.0 | 0.00 | 0.00 | 0.00 | 71 | 1013.5 |
| 20260904162105 | 68 | 196 | 2.0 | 5.0 | 0.00 | 0.00 | 0.00 | 70 | 1013.4 |
| 20260904161604 | 68 | 189 | 3.0 | 7.0 | 0.00 | 0.00 | 0.00 | 71 | 1013.4 |
| 20260904161105 | 67 | 187 | 3.0 | 6.0 | 0.00 | 0.00 | 0.00 | 71 | 1013.4 |
| 20260904160605 | 66 | 172 | 3.0 | 6.0 | 0.00 | 0.00 | 0.00 | 73 | 1013.4 |
| 20260904155605 | 66 | 180 | 3.0 | 8.0 | 0.00 | 0.00 | 0.00 | 74 | 1013.5 |
| 20260904155105 | 65 | 136 | 4.0 | 8.0 | 0.00 | 0.00 | 0.00 | 75 | 1013.5 |
| 20260904154604 | 65 | 186 | 3.0 | 7.0 | 0.00 | 0.00 | 0.00 | 75 | 1013.4 |
| 20260904154104 | 65 | 183 | 4.0 | 8.0 | 0.00 | 0.00 | 0.00 | 74 | 1013.4 |
| 20260904153104 | 64 | 135 | 2.0 | 6.0 | 0.00 | 0.00 | 0.00 | 75 | 1013.3 |
| 20260904150104 | 61 | 152 | 3.0 | 3.0 | 0.00 | 0.00 | 0.00 | 77 | 1013.3 |
| 20260904145604 | 60 | 176 | 2.0 | 3.0 | 0.00 | 0.00 | 0.00 | 78 | 1013.3 |
| 20260904144605 | 60 | 46 | 1.0 | 1.0 | 0.00 | 0.00 | 0.00 | 81 | 1013.1 |
| 20260904144104 | 59 | 48 | 1.0 | 3.0 | 0.00 | 0.00 | 0.00 | 81 | 1013.1 |
| 20260904143605 | 59 | 47 | 1.0 | 3.0 | 0.00 | 0.00 | 0.00 | 82 | 1013.0 |
| 20260904143104 | 58 | 53 | 1.0 | 2.0 | 0.00 | 0.00 | 0.00 | 83 | 1013.0 |
| 20260904142604 | 58 | 54 | 1.0 | 2.0 | 0.00 | 0.00 | 0.00 | 83 | 1013.0 |
| 20260904142105 | 58 | 59 | 1.0 | 2.0 | 0.00 | 0.00 | 0.00 | 84 | 1012.9 |
| 20260904141605 | 57 | 83 | 1.0 | 2.0 | 0.00 | 0.00 | 0.00 | 84 | 1012.8 |
| 20260904140604 | 57 | 62 | 1.0 | 2.0 | 0.00 | 0.00 | 0.00 | 84 | 1012.7 |
| 20260904140105 | 57 | 72 | 1.0 | 1.0 | 0.00 | 0.00 | 0.00 | 84 | 1012.6 |
| 20260904134104 | 57 | 69 | 1.0 | 1.0 | 0.00 | 0.00 | 0.00 | 84 | 1012.4 |
| 20260904133605 | 57 | 73 | 1.0 | 2.0 | 0.00 | 0.00 | 0.00 | 84 | 1012.4 |
| 20260904131604 | 58 | 72 | 1.0 | 2.0 | 0.00 | 0.00 | 0.00 | 83 | 1012.2 |
| 20260904131105 | 58 | 93 | 1.0 | 3.0 | 0.00 | 0.00 | 0.00 | 83 | 1012.1 |
| 20260904130104 | 58 | 149 | 2.0 | 3.0 | 0.00 | 0.00 | 0.00 | 82 | 1012.0 |
| 20260904124604 | 59 | 170 | 2.0 | 3.0 | 0.00 | 0.00 | 0.00 | 82 | 1011.7 |
| 20260904123604 | 59 | 146 | 1.0 | 3.0 | 0.00 | 0.00 | 0.00 | 82 | 1011.6 |
| 20260904121605 | 59 | 87 | 2.0 | 2.0 | 0.00 | 0.00 | 0.00 | 82 | 1011.7 |
| 20260904114104 | 59 | 141 | 1.0 | 2.0 | 0.00 | 0.00 | 0.00 | 82 | 1011.5 |
| 20260904113605 | 60 | 85 | 2.0 | 2.0 | 0.00 | 0.00 | 0.00 | 81 | 1011.5 |
| 20260904113104 | 60 | 71 | 2.0 | 2.0 | 0.00 | 0.00 | 0.00 | 82 | 1011.4 |
| 20260904104604 | 60 | 134 | 1.0 | 2.0 | 0.00 | 0.00 | 0.00 | 82 | 1011.3 |
| 20260904104105 | 60 | 124 | 1.0 | 2.0 | 0.00 | 0.00 | 0.00 | 82 | 1011.2 |
| 20260904103104 | 60 | 120 | 1.0 | 2.0 | 0.00 | 0.00 | 0.00 | 82 | 1011.2 |
| 20260904102604 | 61 | 120 | 1.0 | 1.0 | 0.00 | 0.00 | 0.00 | 82 | 1011.2 |
| 20260904102104 | 61 | 116 | 1.0 | 1.0 | 0.00 | 0.00 | 0.00 | 81 | 1011.1 |
| 20260904101104 | 62 | 105 | 1.0 | 2.0 | 0.00 | 0.00 | 0.00 | 80 | 1011.1 |
| 20260904100104 | 63 | 117 | 1.0 | 2.0 | 0.00 | 0.00 | 0.00 | 79 | 1011.0 |
| 20260904094104 | 64 | 212 | 1.0 | 3.0 | 0.00 | 0.00 | 0.00 | 77 | 1010.8 |
| 20260904093605 | 64 | 195 | 2.0 | 3.0 | 0.00 | 0.00 | 0.00 | 77 | 1010.8 |
| 20260904092604 | 64 | 200 | 2.0 | 3.0 | 0.00 | 0.00 | 0.00 | 75 | 1010.7 |
| 20260904091605 | 64 | 200 | 2.0 | 2.0 | 0.00 | 0.00 | 0.00 | 75 | 1010.7 |
| 20260904090604 | 65 | 185 | 2.0 | 3.0 | 0.00 | 0.00 | 0.00 | 73 | 1010.7 |
| 20260904090104 | 65 | 75 | 1.0 | 2.0 | 0.00 | 0.00 | 0.00 | 73 | 1010.7 |
| 20260904085605 | 65 | 201 | 2.0 | 3.0 | 0.00 | 0.00 | 0.00 | 72 | 1010.7 |
| 20260904084104 | 65 | 205 | 2.0 | 2.0 | 0.00 | 0.00 | 0.00 | 70 | 1010.6 |
| 20260904082604 | 65 | 121 | 1.0 | 2.0 | 0.00 | 0.00 | 0.00 | 72 | 1010.6 |
| 20260904081605 | 64 | 143 | 1.0 | 3.0 | 0.00 | 0.00 | 0.00 | 72 | 1010.6 |
| 20260904081104 | 64 | 148 | 2.0 | 2.0 | 0.00 | 0.00 | 0.00 | 74 | 1010.6 |
| 20260904080604 | 64 | 103 | 2.0 | 3.0 | 0.00 | 0.00 | 0.00 | 75 | 1010.6 |
| 20260904080105 | 64 | 177 | 2.0 | 3.0 | 0.00 | 0.00 | 0.00 | 76 | 1010.6 |
| 20260904075104 | 64 | 201 | 2.0 | 3.0 | 0.00 | 0.00 | 0.00 | 76 | 1010.4 |
| 20260904073604 | 65 | 141 | 2.0 | 2.0 | 0.00 | 0.00 | 0.00 | 73 | 1010.2 |
| 20260904073104 | 64 | 83 | 2.0 | 3.0 | 0.00 | 0.00 | 0.00 | 73 | 1010.1 |
| 20260904072104 | 65 | 212 | 2.0 | 2.0 | 0.00 | 0.00 | 0.00 | 75 | 1010.0 |
| 20260904071604 | 65 | 209 | 1.0 | 2.0 | 0.00 | 0.00 | 0.00 | 75 | 1010.0 |
| 20260904065604 | 66 | 205 | 1.0 | 2.0 | 0.00 | 0.00 | 0.00 | 75 | 1009.9 |
| 20260904064604 | 67 | 201 | 1.0 | 2.0 | 0.00 | 0.00 | 0.00 | 73 | 1009.8 |
| 20260904063604 | 67 | 136 | 2.0 | 2.0 | 0.00 | 0.00 | 0.00 | 71 | 1009.6 |
| 20260904062605 | 68 | 22 | 1.0 | 2.0 | 0.00 | 0.00 | 0.00 | 70 | 1009.7 |
| 20260904062104 | 68 | 74 | 1.0 | 2.0 | 0.00 | 0.00 | 0.00 | 70 | 1009.7 |
| 20260904060604 | 69 | 292 | 1.0 | 2.0 | 0.00 | 0.00 | 0.00 | 65 | 1009.6 |
| 20260904060105 | 69 | 289 | 2.0 | 2.0 | 0.00 | 0.00 | 0.00 | 66 | 1009.6 |
| 20260904054104 | 69 | 349 | 1.0 | 2.0 | 0.00 | 0.00 | 0.00 | 68 | 1009.6 |
| 20260904053604 | 69 | 284 | 1.0 | 2.0 | 0.00 | 0.00 | 0.00 | 67 | 1009.6 |
| 20260904052605 | 69 | 261 | 1.0 | 2.0 | 0.00 | 0.00 | 0.00 | 67 | 1009.6 |
| 20260904052104 | 69 | 309 | 2.0 | 2.0 | 0.00 | 0.00 | 0.00 | 66 | 1009.6 |
| 20260904051105 | 69 | 305 | 1.0 | 2.0 | 0.00 | 0.00 | 0.00 | 68 | 1009.6 |
| 20260904044605 | 70 | 192 | 1.0 | 1.0 | 0.00 | 0.00 | 0.00 | 64 | 1009.6 |
| 20260904044104 | 71 | 189 | 1.0 | 1.0 | 0.00 | 0.00 | 0.00 | 63 | 1009.6 |
| 20260904043105 | 71 | 194 | 1.0 | 1.0 | 0.00 | 0.00 | 0.00 | 63 | 1009.6 |
| 20260904042104 | 72 | 206 | 1.0 | 1.0 | 0.00 | 0.00 | 0.00 | 61 | 1009.5 |
| 20260904034604 | 76 | 127 | 1.0 | 2.0 | 0.00 | 0.00 | 0.00 | 51 | 1009.1 |
| 20260904033105 | 75 | 142 | 1.0 | 2.0 | 0.00 | 0.00 | 0.00 | 52 | 1009.1 |
| 20260904031604 | 75 | 153 | 1.0 | 2.0 | 0.00 | 0.00 | 0.00 | 53 | 1009.0 |
| 20260904031104 | 75 | 341 | 1.0 | 1.0 | 0.00 | 0.00 | 0.00 | 52 | 1009.0 |
| 20260904030604 | 76 | 8 | 1.0 | 1.0 | 0.00 | 0.00 | 0.00 | 51 | 1009.0 |
| 20260904030104 | 76 | 358 | 0.0 | 1.0 | 0.00 | 0.00 | 0.00 | 51 | 1008.9 |
| 20260904025104 | 77 | 75 | 1.0 | 1.0 | 0.00 | 0.00 | 0.00 | 48 | 1008.7 |
| 20260904023105 | 79 | 210 | 1.0 | 2.0 | 0.00 | 0.00 | 0.00 | 45 | 1009.0 |
| 20260904022604 | 79 | 207 | 1.0 | 2.0 | 0.00 | 0.00 | 0.00 | 45 | 1009.1 |
| 20260904020104 | 81 | 242 | 1.0 | 2.0 | 0.00 | 0.00 | 0.00 | 42 | 1009.2 |
| 20260904015604 | 82 | 209 | 1.0 | 2.0 | 0.00 | 0.00 | 0.00 | 40 | 1009.3 |
| 20260904014604 | 82 | 235 | 2.0 | 3.0 | 0.00 | 0.00 | 0.00 | 39 | 1009.3 |
| 20260904013604 | 83 | 308 | 2.0 | 3.0 | 0.00 | 0.00 | 0.00 | 39 | 1009.4 |
| 20260904012604 | 83 | 227 | 1.0 | 3.0 | 0.00 | 0.00 | 0.00 | 39 | 1009.4 |
| 20260904005604 | 87 | 320 | 1.0 | 2.0 | 0.00 | 0.00 | 0.00 | 35 | 1009.5 |
| 20260904004604 | 87 | 0 | 1.0 | 2.0 | 0.00 | 0.00 | 0.00 | 34 | 1009.6 |
| 20260904003605 | 87 | 329 | 1.0 | 2.0 | 0.00 | 0.00 | 0.00 | 35 | 1009.5 |
| 20260904003105 | 87 | 335 | 2.0 | 2.0 | 0.00 | 0.00 | 0.00 | 36 | 1009.6 |
| 20260904002104 | 88 | 341 | 2.0 | 3.0 | 0.00 | 0.00 | 0.00 | 35 | 1009.6 |
| 20260904001604 | 88 | 323 | 1.0 | 2.0 | 0.00 | 0.00 | 0.00 | 36 | 1009.6 |
| 20260904001105 | 88 | 352 | 1.0 | 5.0 | 0.00 | 0.00 | 0.00 | 34 | 1009.4 |
| 20260903235604 | 87 | 288 | 1.0 | 2.0 | 0.00 | 0.00 | 0.00 | 34 | 1009.8 |
| 20260903234105 | 87 | 303 | 1.0 | 2.0 | 0.00 | 0.00 | 0.00 | 37 | 995.6 |
| 20260903233604 | 67 | 0 | 0.0 | 0.0 | 0.00 | 0.00 | 0.00 | 73 | 1014.8 |
| 20260903232604 | 67 | 0 | 0.0 | 0.0 | 0.00 | 0.00 | 0.00 | 73 | 1014.8 |
| 20260903232104 | 67 | 0 | 0.0 | 0.0 | 0.00 | 0.00 | 0.00 | 73 | 1014.8 |
| 20260903230104 | 67 | 0 | 0.0 | 0.0 | 0.00 | 0.00 | 0.00 | 73 | 1014.8 |